User: anonymous   Login
Location: ??
(35.5052°N, 139.7262°E)
Time: 04:40:07
(UTC+00:00)
Language:

Cosmos 1459 Rocket - Orbit

View from above orbital plane
View from above orbital plane
View from above satellite
View from above satellite

Ground track
Ground track

The orbit data is extracted from the following two-line orbital elements,

1 14059U 83042B   21260.52827494  .00000028  00000-0  12702-4 0  9994
2 14059  82.9760 348.8485 0041779 222.2777 137.5158 13.78740900929526
Epoch (UTC): 17 September 2021 12:40:42
Eccentricity: 0.0041779
inclination: 82.9760°
perigee height: 937 km
apogee height: 999 km
right ascension of ascending node: 348.8485°
argument of perigee: 222.2777°
revolutions per day: 13.78740900
mean anomaly at epoch: 137.5158°
orbit number at epoch: 92952

The dashed part of the orbit path shows where the satellite is in the earth's shadow,  

DLR